Weather History for Ellensburg, WA

Change the Weather History Date:

Thursday, May 3, 2012

  Actual Average (KYKM) Record (KYKM)
Temperature  
Mean Temperature 50 °F 53 °F  
Max Temperature 55 °F 69 °F 87 °F (1971)
Min Temperature 44 °F 38 °F 27 °F (1959)
Degree Days  
Heating Degree Days 16 12  
Month to date heating degree days 36  
Since 1 July heating degree days 5718  
Cooling Degree Days 0 0  
Month to date cooling degree days 0  
Year to date cooling degree days 1  
Moisture  
Dew Point 39 °F    
Average Humidity 69    
Maximum Humidity 81    
Minimum Humidity 44    
Precipitation  
Precipitation 0.18 in 0.01 in 0.11 in (1960)
Month to date precipitation 0.05  
Year to date precipitation 3.14  
Snow  
Snow 0.00 in 0.00 in 0.00 in (2002)
Month to date snowfall 0.0  
Year to date snowfall 8.6  
Since 1 July snowfall 21.6  
Snow Depth -    
Sea Level Pressure  
Sea Level Pressure 29.69 in    
Wind  
Wind Speed 4 mph (ESE)    
Max Wind Speed 18 mph    
Max Gust Speed 25 mph    
Visibility 10 miles    
Events Rain    
T = Trace of Precipitation, MM = Missing Value Source: NWS Daily Summary

Daily Weather History Graph

Daily Weather History Graph

Search for Another Location

Airport:

Trip Planner

Search our weather history database for the weather conditions in past years. The results will help you decide how hot, cold, wet, or windy it might be!

Date:

Astronomy

May. 03, 2012 Rise Set
Actual Time 5:42 AM PDT 8:16 PM PDT
Civil Twilight 5:08 AM PDT 8:50 PM PDT
Nautical Twilight 4:25 AM PDT 9:34 PM PDT
Astronomical Twilight 3:35 AM PDT 10:24 PM PDT
Moon 5:39 PM PDT (5/3) 3:59 AM PDT (5/3)
Length of Visible Light 15h 42m
Length of Day
14h 33m
Waxing Gibbous, 92% of the Moon is Illuminated
May 3
Waxing Gibbous
May 5
Full
May 12
Last Quarter
May 20
New
May 28
First Quarter

Hourly Weather History & Observations

Time (PDT) Temp. Windchill Dew Point Humidity Pressure Visibility Wind Dir Wind Speed Gust Speed Precip Events Conditions
12:53 AM 50.0 °F - 28.9 °F 44% 29.75 in 10.0 mi Calm Calm - N/A   Overcast
1:53 AM 48.9 °F - 28.9 °F 46% 29.72 in 10.0 mi East 3.5 mph - N/A   Overcast
2:53 AM 50.0 °F - 28.9 °F 44% 29.71 in 10.0 mi ESE 6.9 mph - N/A   Overcast
3:53 AM 48.0 °F - 32.0 °F 54% 29.70 in 10.0 mi ENE 6.9 mph - 0.00 in Rain Light Rain
4:53 AM 46.0 °F 44.8 °F 37.0 °F 71% 29.69 in 10.0 mi East 3.5 mph - 0.00 in Rain Light Rain
5:53 AM 45.0 °F - 37.9 °F 76% 29.69 in 8.0 mi Calm Calm - 0.03 in Rain Light Rain
6:02 AM 44.6 °F 43.1 °F 37.4 °F 76% 29.68 in 10.0 mi ESE 3.5 mph - 0.00 in Rain Light Rain
6:53 AM 45.0 °F - 37.9 °F 76% 29.68 in 10.0 mi Calm Calm - 0.03 in Rain Light Rain
7:53 AM 45.0 °F - 39.0 °F 80% 29.68 in 8.0 mi Calm Calm - 0.02 in Rain Light Rain
8:20 AM 44.6 °F - 39.2 °F 81% 29.67 in 8.0 mi Calm Calm - 0.01 in Rain Light Rain
8:42 AM 46.4 °F - 39.2 °F 76% 29.67 in 10.0 mi Calm Calm - 0.02 in Rain Light Rain
8:53 AM 46.0 °F - 39.9 °F 79% 29.68 in 10.0 mi Calm Calm - 0.02 in Rain Light Rain
9:02 AM 46.4 °F - 39.2 °F 76% 29.67 in 10.0 mi Calm Calm - 0.00 in Rain Light Rain
9:14 AM 46.4 °F - 39.2 °F 76% 29.66 in 10.0 mi Calm Calm - 0.00 in Rain Light Rain
9:53 AM 46.9 °F - 39.0 °F 74% 29.67 in 10.0 mi Calm Calm - 0.00 in   Overcast
10:53 AM 48.0 °F - 39.9 °F 74% 29.67 in 10.0 mi South 4.6 mph - 0.00 in Rain Light Rain
11:53 AM 48.0 °F - 39.9 °F 74% 29.66 in 10.0 mi SE 4.6 mph - 0.02 in Rain Light Rain
12:53 PM 50.0 °F - 41.0 °F 71% 29.65 in 10.0 mi ESE 6.9 mph - 0.00 in Rain Light Rain
1:53 PM 50.0 °F - 43.0 °F 77% 29.66 in 8.0 mi ESE 5.8 mph - 0.05 in Rain Light Rain
2:11 PM 51.8 °F - 44.6 °F 76% 29.65 in 10.0 mi ESE 8.1 mph - 0.00 in Rain Light Rain
2:43 PM 51.8 °F - 42.8 °F 71% 29.65 in 10.0 mi ESE 4.6 mph - 0.00 in   Overcast
2:53 PM 53.1 °F - 44.1 °F 71% 29.65 in 10.0 mi ESE 6.9 mph - 0.00 in   Overcast
3:31 PM 53.6 °F - 42.8 °F 67% 29.64 in 10.0 mi SSE 5.8 mph - N/A   Overcast
3:53 PM 53.1 °F - 42.1 °F 66% 29.65 in 10.0 mi SE 5.8 mph - N/A   Mostly Cloudy
4:53 PM 54.0 °F - 42.1 °F 64% 29.66 in 10.0 mi South 5.8 mph - 0.00 in Rain Light Rain
5:53 PM 54.0 °F - 42.1 °F 64% 29.68 in 10.0 mi Calm Calm - 0.01 in Rain Light Rain
6:53 PM 55.0 °F - 41.0 °F 59% 29.69 in 10.0 mi Calm Calm - 0.00 in   Overcast
7:53 PM 53.1 °F - 44.1 °F 71% 29.71 in 10.0 mi NW 5.8 mph - N/A   Overcast
8:53 PM 48.0 °F - 39.9 °F 74% 29.77 in 10.0 mi NW 18.4 mph 25.3 mph 0.00 in   Partly Cloudy
9:53 PM 46.9 °F - 37.0 °F 68% 29.81 in 10.0 mi NW 17.3 mph - N/A   Clear
10:53 PM 45.0 °F 39.3 °F 36.0 °F 71% 29.84 in 10.0 mi NW 11.5 mph - N/A   Clear
11:53 PM 44.1 °F 38.1 °F 35.1 °F 71% 29.88 in 10.0 mi NW 11.5 mph - N/A   Clear